STARLINK-4185

operational
NORAD ID: 53139 Int'l Des: 2022-083 Owner: SPXS Country: US Constellation: starlink
LEOCIRCULAR

About STARLINK-4185

Description loading...

Live Position

Loading 3D Globe...

Upcoming Passes

Altitude History

Altitude vs Time

uPlot chart will show altitude changes over time

Two-Line Element Set

1 53139U 22083H 25251.36727428 .00000093 00000-0 23921-4 0 9993
2 53139 53.2167 272.5999 0001512 82.5062 277.6102 15.08831570173691
Epoch: Sep 8, 2025 • Age: 18 hours

Current Status

Altitude 546.2 km
Velocity 7.59 km/s
Sub-Earth Point -20.93°S, 69.07°E
Launch Date Jul 17, 2022
Age 3.1 years
Type internet

Technical Details

Classification Payload
Mass 297.00 kg
Dry Mass 275.00 kg
Total Mass 297.00 kg
Length 0.20 m
Diameter 2.80 m
Span 9.00 m
Shape Box + pan
Manufacturer SPXS
Bus Type Starlink
Phase Status In Orbit
Owner/State SPXS/US

Large Constellations

Loading constellations...